Location: Newark
(34.1333°N, 7.9667°W)
Time: 13:46:46
(UTC+00:00)

S-56A Canister/Altair - Pass Details

Date: 06 December 2021
Orbit: 634 x 2499 km, 38.9° (Epoch: 25 January)

Event Time Altitude Azimuth Distance (km) Brightness Sun altitude
Exits shadow 06:23:53 13° 260° (W) 1,985 9.1 -12.2°
Maximum altitude 06:26:39 20° 220° (SW) 1,514 8.9 -11.7°
Drops below altitude 10° 06:29:55 10° 172° (S) 2,002 10.1 -11.0°
Sets 06:32:40 0° 154° (SSE) 2,919 11.3 -10.5°
